#Comment Line 1
#Comment Line 2
#reqtime=1721704205.780,2024-07-23 03:10:05.780,UTC
#URL=http://130.118.152.200:8080/valve3/valve3.jsp?&a=rawData&o=csv&tz=UTC&chCnt.0=1&src.0=hw50_scan&st.0=-2419200000&et.0=N&ch.0=2&dataTypes.0=0.0&ds.0=Decimation&dsInt.0=5&despike.0=F&despike_period.0=&dmo_fl.0=0&filter_arg1.0=&filter_arg2.0=&filter_arg3.0=&dmo_arithmetic.0=None&dmo_arithmetic_value.0=&dmo_db.0=0&debias_period.0=&CH0.0=T&CH1.0=T&CH2.0=T&CH3.0=T&CH4.0=T&CH5.0=T&CH6.0=T&CH7.0=F&CH8.0=T
#source=hw50_scan
#st= 772557005.786, et= 774976205.786, chCnt=1
Epoch,Date,hw50_90_CH0,hw50_90_CH1,hw50_90_CH2,hw50_90_CH3,hw50_90_CH4,hw50_90_CH5,hw50_90_CH6,hw50_90_CH8
1719285060.000,2024-06-25 03:11:00,   12.5833,    1.2271,    0.0379,    1.7564,    0.0000,    0.0815,    2.4161, 5250.0000
1719285360.000,2024-06-25 03:16:00,   12.5760,    1.2271,    0.0379,    1.7565,    0.0000,    0.0813,    2.4160, 5250.0000
1719285660.000,2024-06-25 03:21:00,   12.5692,    1.2272,    0.0379,    1.7564,    0.0000,    0.0813,    2.4159, 5250.0000
1719285960.000,2024-06-25 03:26:00,   12.5631,    1.2270,    0.0376,    1.7564,    0.0000,    0.0812,    2.4164, 5250.0000
1719286260.000,2024-06-25 03:31:00,   12.5589,    1.2270,    0.0383,    1.7564,    0.0000,    0.0812,    2.4163, 5250.0000
1719286560.000,2024-06-25 03:36:00,   12.5528,    1.2271,    0.0382,    1.7563,    0.0000,    0.0812,    2.4163, 5250.0000
1719286860.000,2024-06-25 03:41:00,   12.5501,    1.2270,    0.0384,    1.7564,    0.0000,    0.0812,    2.4157, 5250.0000
1719287160.000,2024-06-25 03:46:00,   12.5524,    1.2271,    0.0385,    1.7563,    0.0000,    0.0811,    2.4162, 5250.0000
1719287460.000,2024-06-25 03:51:00,   12.5524,    1.2271,    0.0384,    1.7563,    0.0000,    0.0812,    2.4160, 5250.0000
1719287760.000,2024-06-25 03:56:00,   12.5509,    1.2271,    0.0383,    1.7563,    0.0000,    0.0811,    2.4159, 5250.0000
1719288060.000,2024-06-25 04:01:00,   12.5494,    1.2270,    0.0386,    1.7563,    0.0000,    0.0810,    2.4163, 5250.0000
1719288360.000,2024-06-25 04:06:00,   12.5479,    1.2270,    0.0384,    1.7563,    0.0004,    0.0810,    2.4161, 5250.0000
1719288660.000,2024-06-25 04:11:00,   12.5471,    1.2270,    0.0385,    1.7563,    0.0000,    0.0810,    2.4158, 5250.0000
1719288960.000,2024-06-25 04:16:00,   12.5456,    1.2270,    0.0385,    1.7563,    0.0000,    0.0808,    2.4158, 5250.0000
1719289260.000,2024-06-25 04:21:00,   12.5429,    1.2271,    0.0385,    1.7562,    0.0004,    0.0810,    2.4161, 5250.0000
1719289560.000,2024-06-25 04:26:00,   12.5414,    1.2271,    0.0385,    1.7561,    0.0000,    0.0808,    2.4155, 5250.0000
1719289860.000,2024-06-25 04:31:00,   12.5399,    1.2269,    0.0385,    1.7562,    0.0000,    0.0809,    2.4158, 5250.0000
1719290160.000,2024-06-25 04:36:00,   12.5379,    1.2270,    0.0386,    1.7563,    0.0000,    0.0808,    2.4157, 5250.0000
1719290460.000,2024-06-25 04:41:00,   12.5364,    1.2270,    0.0387,    1.7562,    0.0000,    0.0807,    2.4156, 5250.0000
1719290760.000,2024-06-25 04:46:00,   12.5345,    1.2269,    0.0387,    1.7562,    0.0000,    0.0808,    2.4159, 5250.0000
1719291060.000,2024-06-25 04:51:00,   12.5330,    1.2271,    0.0385,    1.7562,    0.0004,    0.0808,    2.4160, 5250.0000
1719291360.000,2024-06-25 04:56:00,   12.5307,    1.2270,    0.0386,    1.7562,    0.0000,    0.0809,    2.4156, 5250.0000
1719291660.000,2024-06-25 05:01:00,   12.5299,    1.2268,    0.0387,    1.7562,    0.0000,    0.0809,    2.4159, 5250.0000
1719291960.000,2024-06-25 05:06:00,   12.5280,    1.2269,    0.0387,    1.7562,    0.0004,    0.0809,    2.4160, 5250.0000
1719292260.000,2024-06-25 05:11:00,   12.5269,    1.2269,    0.2372,    1.7561,    0.0000,    0.0807,    2.4158, 5250.0000
1719292560.000,2024-06-25 05:16:00,   12.5258,    1.2271,    0.2372,    1.7561,    0.0004,    0.0808,    2.4159, 5250.0000
1719292860.000,2024-06-25 05:21:00,   12.5239,    1.2268,    0.2372,    1.7561,    0.0004,    0.0808,    2.4157, 5250.0000
1719293160.000,2024-06-25 05:26:00,   12.5231,    1.2270,    0.2372,    1.7561,    0.0000,    0.0808,    2.4158, 5250.0000
1719293460.000,2024-06-25 05:31:00,   12.5212,    1.2270,    0.2372,    1.7561,    0.0000,    0.0808,    2.4160, 5250.0000
1719293760.000,2024-06-25 05:36:00,   12.5197,    1.2269,    0.2374,    1.7561,    0.0004,    0.0808,    2.4160, 5250.0000
1719294060.000,2024-06-25 05:41:00,   12.5181,    1.2270,    0.2374,    1.7561,    0.0000,    0.0807,    2.4158, 5250.0000
1719294360.000,2024-06-25 05:46:00,   12.5162,    1.2269,    0.2375,    1.7561,    0.0000,    0.0808,    2.4158, 5250.0000
1719294660.000,2024-06-25 05:51:00,   12.5136,    1.2270,    0.2377,    1.7561,    0.0004,    0.0807,    2.4158, 5250.0000
1719294960.000,2024-06-25 05:56:00,   12.5136,    1.2270,    0.2378,    1.7561,    0.0004,    0.0807,    2.4160, 5250.0000
1719295260.000,2024-06-25 06:01:00,   12.5113,    1.2269,    0.2379,    1.7561,    0.0004,    0.0808,    2.4155, 5250.0000
1719295560.000,2024-06-25 06:06:00,   12.5098,    1.2269,    0.2377,    1.7560,    0.0000,    0.0805,    2.4158, 5250.0000
1719295860.000,2024-06-25 06:11:00,   12.5078,    1.2270,    0.2377,    1.7561,    0.0000,    0.0807,    2.4161, 5250.0000
1719296160.000,2024-06-25 06:16:00,   12.5059,    1.2269,    0.2377,    1.7561,    0.0004,    0.0806,    2.4154, 5250.0000
1719296460.000,2024-06-25 06:21:00,   12.5048,    1.2269,    0.2377,    1.7561,    0.0000,    0.0807,    2.4160, 5250.0000
1719296760.000,2024-06-25 06:26:00,   12.5029,    1.2271,    0.2378,    1.7560,    0.0000,    0.0806,    2.4161, 5250.0000
1719297060.000,2024-06-25 06:31:00,   12.5014,    1.2269,    0.2379,    1.7560,    0.0000,    0.0806,    2.4155, 5250.0000
1719297360.000,2024-06-25 06:36:00,   12.4998,    1.2269,    0.2379,    1.7560,    0.0004,    0.0807,    2.4156, 5250.0000
1719297660.000,2024-06-25 06:41:00,   12.4983,    1.2271,    0.2380,    1.7561,    0.0000,    0.0807,    2.4157, 5250.0000
1719297960.000,2024-06-25 06:46:00,   12.4968,    1.2272,    0.2377,    1.7560,    0.0000,    0.0807,    2.4155, 5250.0000
1719298260.000,2024-06-25 06:51:00,   12.4949,    1.2269,    0.2377,    1.7560,    0.0008,    0.0807,    2.4156, 5250.0000
1719298560.000,2024-06-25 06:56:00,   12.4934,    1.2269,    0.2378,    1.7561,    0.0000,    0.0807,    2.4155, 5250.0000
1719298860.000,2024-06-25 07:01:00,   12.4922,    1.2269,    0.2379,    1.7561,    0.0000,    0.0807,    2.4153, 5250.0000
1719299160.000,2024-06-25 07:06:00,   12.4899,    1.2269,    0.2378,    1.7560,    0.0000,    0.0806,    2.4158, 5250.0000
1719299460.000,2024-06-25 07:11:00,   12.4888,    1.2268,    0.2379,    1.7561,    0.0000,    0.0807,    2.4157, 5250.0000
1719299760.000,2024-06-25 07:16:00,   12.4873,    1.2269,    0.2378,    1.7560,    0.0000,    0.0806,    2.4156, 5250.0000
1719300060.000,2024-06-25 07:21:00,   12.4858,    1.2270,    0.2379,    1.7560,    0.0000,    0.0807,    2.4153, 5250.0000
1719300360.000,2024-06-25 07:26:00,   12.4835,    1.2270,    0.2379,    1.7561,    0.0000,    0.0807,    2.4153, 5250.0000
1719300660.000,2024-06-25 07:31:00,   12.4816,    1.2270,    0.2379,    1.7560,    0.0000,    0.0807,    2.4155, 5250.0000
1719300960.000,2024-06-25 07:36:00,   12.4808,    1.2271,    0.2381,    1.7561,    0.0000,    0.0805,    2.4157, 5250.0000
1719301260.000,2024-06-25 07:41:00,   12.4785,    1.2270,    0.2381,    1.7560,    0.0004,    0.0805,    2.4155, 5250.0000
1719301560.000,2024-06-25 07:46:00,   12.4770,    1.2269,    0.2381,    1.7560,    0.0004,    0.0806,    2.4155, 5250.0000
1719301860.000,2024-06-25 07:51:00,   12.4755,    1.2270,    0.2382,    1.7560,    0.0004,    0.0806,    2.4156, 5250.0000
1719302160.000,2024-06-25 07:56:00,   12.4743,    1.2267,    0.2381,    1.7561,    0.0004,    0.0807,    2.4160, 5250.0000
1719302460.000,2024-06-25 08:01:00,   12.4728,    1.2268,    0.2381,    1.7560,    0.0004,    0.0805,    2.4156, 5250.0000
1719302760.000,2024-06-25 08:06:00,   12.4709,    1.2271,    0.2381,    1.7560,    0.0000,    0.0807,    2.4157, 5250.0000
1719303060.000,2024-06-25 08:11:00,   12.4697,    1.2268,    0.2381,    1.7561,    0.0000,    0.0806,    2.4154, 5250.0000
1719303360.000,2024-06-25 08:16:00,   12.4678,    1.2269,    0.2380,    1.7560,    0.0000,    0.0806,    2.4155, 5250.0000
1719303660.000,2024-06-25 08:21:00,   12.4663,    1.2271,    0.2381,    1.7560,    0.0000,    0.0807,    2.4154, 5250.0000
1719303960.000,2024-06-25 08:26:00,   12.4648,    1.2269,    0.2381,    1.7561,    0.0000,    0.0808,    2.4154, 5250.0000
1719304260.000,2024-06-25 08:31:00,   12.4633,    1.2268,    0.2381,    1.7560,    0.0000,    0.0807,    2.4154, 5250.0000
1719304560.000,2024-06-25 08:36:00,   12.4621,    1.2270,    0.2380,    1.7560,    0.0000,    0.0807,    2.4156, 5250.0000
1719304860.000,2024-06-25 08:41:00,   12.4610,    1.2269,    0.2380,    1.7561,    0.0000,    0.0809,    2.4156, 5250.0000
1719305160.000,2024-06-25 08:46:00,   12.4583,    1.2269,    0.2379,    1.7560,    0.0000,    0.0807,    2.4155, 5250.0000
1719305460.000,2024-06-25 08:51:00,   12.4572,    1.2270,    0.2379,    1.7560,    0.0000,    0.0809,    2.4154, 5250.0000
1719305760.000,2024-06-25 08:56:00,   12.4560,    1.2270,    0.2378,    1.7560,    0.0000,    0.0807,    2.4155, 5250.0000
1719306060.000,2024-06-25 09:01:00,   12.4545,    1.2269,    0.2378,    1.7560,    0.0004,    0.0807,    2.4155, 5250.0000
1719306360.000,2024-06-25 09:06:00,   12.4530,    1.2269,    0.2379,    1.7560,    0.0000,    0.0807,    2.4155, 5250.0000
1719306660.000,2024-06-25 09:11:00,   12.4511,    1.2268,    0.2378,    1.7560,    0.0000,    0.0807,    2.4154, 5250.0000
1719306960.000,2024-06-25 09:16:00,   12.4503,    1.2270,    0.2380,    1.7560,    0.0000,    0.0808,    2.4151, 5250.0000
1719307260.000,2024-06-25 09:21:00,   12.4488,    1.2269,    0.2381,    1.7560,    0.0000,    0.0806,    2.4153, 5250.0000
1719307560.000,2024-06-25 09:26:00,   12.4461,    1.2270,    0.0393,    1.7560,    0.0000,    0.0807,    2.4153, 5250.0000
1719307860.000,2024-06-25 09:31:00,   12.4442,    1.2270,    0.0392,    1.7560,    0.0000,    0.0807,    2.4155, 5250.0000
1719308160.000,2024-06-25 09:36:00,   12.4431,    1.2269,    0.0390,    1.7560,    0.0000,    0.0806,    2.4154, 5250.0000
1719308460.000,2024-06-25 09:41:00,   12.4412,    1.2269,    0.0390,    1.7560,    0.0000,    0.0806,    2.4153, 5250.0000
1719308760.000,2024-06-25 09:46:00,   12.4400,    1.2267,    0.0391,    1.7560,    0.0004,    0.0806,    2.4157, 5250.0000
1719309060.000,2024-06-25 09:51:00,   12.4385,    1.2271,    0.0389,    1.7560,    0.0000,    0.0807,    2.4155, 5250.0000
1719309360.000,2024-06-25 09:56:00,   12.4374,    1.2268,    0.0391,    1.7560,    0.0004,    0.0806,    2.4155, 5250.0000
1719309660.000,2024-06-25 10:01:00,   12.4355,    1.2268,    0.0389,    1.7560,    0.0000,    0.0805,    2.4158, 5250.0000
1719309960.000,2024-06-25 10:06:00,   12.4343,    1.2267,    0.0390,    1.7560,    0.0004,    0.0805,    2.4153, 5250.0000
1719310260.000,2024-06-25 10:11:00,   12.4324,    1.2272,    0.0389,    1.7560,    0.0004,    0.0806,    2.4152, 5250.0000
1719310560.000,2024-06-25 10:16:00,   12.4305,    1.2268,    0.0389,    1.7560,    0.0000,    0.0806,    2.4152, 5250.0000
1719310860.000,2024-06-25 10:21:00,   12.4294,    1.2271,    0.0389,    1.7560,    0.0000,    0.0806,    2.4153, 5250.0000
1719311160.000,2024-06-25 10:26:00,   12.4282,    1.2267,    0.0389,    1.7561,    0.0004,    0.0805,    2.4155, 5250.0000
1719311460.000,2024-06-25 10:31:00,   12.4263,    1.2270,    0.0390,    1.7561,    0.0004,    0.0806,    2.4156, 5250.0000
1719311760.000,2024-06-25 10:36:00,   12.4248,    1.2268,    0.0389,    1.7560,    0.0000,    0.0806,    2.4156, 5250.0000
1719312060.000,2024-06-25 10:41:00,   12.4229,    1.2271,    0.0391,    1.7560,    0.0000,    0.0804,    2.4158, 5250.0000
1719312360.000,2024-06-25 10:46:00,   12.4210,    1.2267,    0.0390,    1.7560,    0.0004,    0.0805,    2.4153, 5250.0000
1719312660.000,2024-06-25 10:51:00,   12.4198,    1.2267,    0.0390,    1.7560,    0.0000,    0.0804,    2.4156, 5250.0000
1719312960.000,2024-06-25 10:56:00,   12.4187,    1.2268,    0.0391,    1.7560,    0.0000,    0.0806,    2.4153, 5250.0000
1719313260.000,2024-06-25 11:01:00,   12.4164,    1.2269,    0.0392,    1.7560,    0.0000,    0.0804,    2.4157, 5250.0000
1719313560.000,2024-06-25 11:06:00,   12.4149,    1.2269,    0.0391,    1.7560,    0.0000,    0.0807,    2.4153, 5250.0000
1719313860.000,2024-06-25 11:11:00,   12.4134,    1.2269,    0.0392,    1.7560,    0.0000,    0.0804,    2.4153, 5250.0000
1719314160.000,2024-06-25 11:16:00,   12.4111,    1.2269,    0.0391,    1.7560,    0.0000,    0.0807,    2.4155, 5250.0000
1719314460.000,2024-06-25 11:21:00,   12.4099,    1.2267,    0.0392,    1.7560,    0.0004,    0.0805,    2.4154, 5250.0000
1719314760.000,2024-06-25 11:26:00,   12.4084,    1.2270,    0.0392,    1.7560,    0.0004,    0.0805,    2.4156, 5250.0000
1719315060.000,2024-06-25 11:31:00,   12.4065,    1.2270,    0.0392,    1.7560,    0.0000,    0.0806,    2.4154, 5250.0000
1719315360.000,2024-06-25 11:36:00,   12.4050,    1.2270,    0.0392,    1.7561,    0.0000,    0.0805,    2.4151, 5250.0000
1719315660.000,2024-06-25 11:41:00,   12.4031,    1.2269,    0.0392,    1.7560,    0.0000,    0.0806,    2.4156, 5250.0000
1719315960.000,2024-06-25 11:46:00,   12.4012,    1.2269,    0.0393,    1.7561,    0.0000,    0.0807,    2.4155, 5250.0000
1719316260.000,2024-06-25 11:51:00,   12.3989,    1.2267,    0.0393,    1.7560,    0.0000,    0.0806,    2.4155, 5250.0000
1719316560.000,2024-06-25 11:56:00,   12.3974,    1.2269,    0.0394,    1.7560,    0.0000,    0.0805,    2.4154, 5250.0000
1719316860.000,2024-06-25 12:01:00,   12.3955,    1.2269,    0.0394,    1.7560,    0.0000,    0.0805,    2.4156, 5250.0000
1719317160.000,2024-06-25 12:06:00,   12.3932,    1.2269,    0.0394,    1.7560,    0.0000,    0.0806,    2.4153, 5250.0000
1719317460.000,2024-06-25 12:11:00,   12.3913,    1.2268,    0.0395,    1.7559,    0.0000,    0.0804,    2.4152, 5250.0000
1719317760.000,2024-06-25 12:16:00,   12.3894,    1.2267,    0.0396,    1.7560,    0.0000,    0.0805,    2.4155, 5250.0000
1719318060.000,2024-06-25 12:21:00,   12.3871,    1.2269,    0.0396,    1.7560,    0.0000,    0.0806,    2.4155, 5250.0000
1719318360.000,2024-06-25 12:26:00,   12.3852,    1.2268,    0.0396,    1.7561,    0.0004,    0.0806,    2.4157, 5250.0000
1719318660.000,2024-06-25 12:31:00,   12.3833,    1.2269,    0.0397,    1.7560,    0.0004,    0.0805,    2.4159, 5250.0000
1719318960.000,2024-06-25 12:36:00,   12.3737,    1.2269,    0.0397,    1.7560,    0.0000,    0.0806,    2.4155, 5250.0000
1719319260.000,2024-06-25 12:41:00,   12.3699,    1.2269,    0.0397,    1.7560,    0.0000,    0.0804,    2.4156, 5250.0000
1719319560.000,2024-06-25 12:46:00,   12.3673,    1.2269,    0.0398,    1.7560,    0.0004,    0.0804,    2.4156, 5250.0000
1719319860.000,2024-06-25 12:51:00,   12.3669,    1.2270,    0.0397,    1.7560,    0.0000,    0.0806,    2.4150, 5250.0000
1719320160.000,2024-06-25 12:56:00,   12.3695,    1.2271,    0.0399,    1.7560,    0.0000,    0.0805,    2.4153, 5250.0000
1719320460.000,2024-06-25 13:01:00,   12.3722,    1.2269,    0.0397,    1.7560,    0.0000,    0.0805,    2.4151, 5250.0000
1719320760.000,2024-06-25 13:06:00,   12.3737,    1.2270,    0.0399,    1.7560,    0.0000,    0.0805,    2.4150, 5250.0000
1719321060.000,2024-06-25 13:11:00,   12.3783,    1.2269,    0.0398,    1.7561,    0.0000,    0.0806,    2.4158, 5250.0000
1719321360.000,2024-06-25 13:16:00,   12.3920,    1.2269,    0.0398,    1.7560,    0.0000,    0.0807,    2.4155, 5250.0000
1719321660.000,2024-06-25 13:21:00,   12.4092,    1.2270,    0.0399,    1.7560,    0.0000,    0.0805,    2.4156, 5250.0000
1719321960.000,2024-06-25 13:26:00,   12.4153,    1.2268,    0.0400,    1.7561,    0.0000,    0.0807,    2.4155, 5250.0000
1719322260.000,2024-06-25 13:31:00,   12.4187,    1.2270,    0.0400,    1.7560,    0.0004,    0.0807,    2.4153, 5250.0000
1719322560.000,2024-06-25 13:36:00,   12.4198,    1.2270,    0.0400,    1.7560,    0.0000,    0.0808,    2.4152, 5250.0000
1719322860.000,2024-06-25 13:41:00,   12.4362,    1.2268,    0.0399,    1.7560,    0.0004,    0.0806,    2.4152, 5250.0000
1719323160.000,2024-06-25 13:46:00,   12.4595,    1.2270,    0.0399,    1.7560,    0.0004,    0.0807,    2.4155, 5250.0000
1719323460.000,2024-06-25 13:51:00,   12.4648,    1.2270,    0.0399,    1.7561,    0.0000,    0.0807,    2.4154, 5250.0000
1719323760.000,2024-06-25 13:56:00,   12.4637,    1.2267,    0.0399,    1.7560,    0.0000,    0.0807,    2.4157, 5250.0000
1719324060.000,2024-06-25 14:01:00,   12.4865,    1.2267,    0.0398,    1.7560,    0.0000,    0.0807,    2.4152, 5250.0000
1719324360.000,2024-06-25 14:06:00,   12.5296,    1.2268,    0.0400,    1.7560,    0.0000,    0.0807,    2.4154, 5250.0000
1719324660.000,2024-06-25 14:11:00,   12.5543,    1.2269,    0.0400,    1.7560,    0.0000,    0.0808,    2.4156, 5250.0000
1719324960.000,2024-06-25 14:16:00,   12.5608,    1.2269,    0.0400,    1.7560,    0.0000,    0.0808,    2.4153, 5250.0000
1719325260.000,2024-06-25 14:21:00,   12.5471,    1.2269,    0.0400,    1.7560,    0.0000,    0.0808,    2.4154, 5250.0000
1719325560.000,2024-06-25 14:26:00,   12.5429,    1.2268,    0.0399,    1.7560,    0.0000,    0.0809,    2.4157, 5250.0000
1719325860.000,2024-06-25 14:31:00,   12.5574,    1.2267,    0.0399,    1.7561,    0.0004,    0.0809,    2.4155, 5250.0000
1719326160.000,2024-06-25 14:36:00,   12.5947,    1.2270,    0.0401,    1.7561,    0.0004,    0.0808,    2.4154, 5250.0000
1719326460.000,2024-06-25 14:41:00,   12.6141,    1.2267,    0.0400,    1.7561,    0.0000,    0.0810,    2.4155, 5250.0000
1719326760.000,2024-06-25 14:46:00,   12.6576,    1.2270,    0.0401,    1.7561,    0.0000,    0.0808,    2.4155, 5250.0000
1719327060.000,2024-06-25 14:51:00,   12.7041,    1.2269,    0.0402,    1.7561,    0.0004,    0.0810,    2.4155, 5250.0000
1719327360.000,2024-06-25 14:56:00,   12.7147,    1.2269,    0.0401,    1.7561,    0.0004,    0.0809,    2.4156, 5250.0000
1719327660.000,2024-06-25 15:01:00,   12.7220,    1.2269,    0.0400,    1.7561,    0.0004,    0.0811,    2.4157, 5250.0000
1719327960.000,2024-06-25 15:06:00,   12.7483,    1.2270,    0.0400,    1.7561,    0.0000,    0.0810,    2.4153, 5250.0000
1719328260.000,2024-06-25 15:11:00,   12.7734,    1.2269,    0.0400,    1.7561,    0.0004,    0.0810,    2.4156, 5250.0000
1719328560.000,2024-06-25 15:16:00,   12.8168,    1.2269,    0.0401,    1.7561,    0.0004,    0.0811,    2.4154, 5250.0000
1719328860.000,2024-06-25 15:21:00,   12.8751,    1.2270,    0.0401,    1.7561,    0.0000,    0.0814,    2.4157, 5250.0000
1719329160.000,2024-06-25 15:26:00,   12.9075,    1.2268,    0.0400,    1.7561,    0.0004,    0.0812,    2.4155, 5250.0000
1719329460.000,2024-06-25 15:31:00,   12.9460,    1.2267,    0.0400,    1.7561,    0.0004,    0.0813,    2.4156, 5250.0000
1719329760.000,2024-06-25 15:36:00,   12.9559,    1.2270,    0.0400,    1.7561,    0.0000,    0.0812,    2.4157, 5250.0000
1719330060.000,2024-06-25 15:41:00,   12.9612,    1.2269,    0.0400,    1.7561,    0.0000,    0.0815,    2.4156, 5250.0000
1719330360.000,2024-06-25 15:46:00,   12.9471,    1.2268,    0.0400,    1.7561,    0.0000,    0.0814,    2.4155, 5250.0000
1719330660.000,2024-06-25 15:51:00,   12.9376,    1.2266,    0.2339,    1.7561,    0.0000,    0.0814,    2.4157, 5250.0000
1719330960.000,2024-06-25 15:56:00,   12.9868,    1.2267,    0.2336,    1.7561,    0.0004,    0.0815,    2.4155, 5250.0000
1719331260.000,2024-06-25 16:01:00,   13.2965,    1.2269,    0.2335,    1.7561,    0.0004,    0.0816,    2.4159, 5250.0000
1719331560.000,2024-06-25 16:06:00,   13.5263,    1.2268,    0.2334,    1.7562,    0.0008,    0.0818,    2.4157, 5250.0000
1719331860.000,2024-06-25 16:11:00,   13.7648,    1.2269,    0.2332,    1.7563,    0.0004,    0.0819,    2.4158, 5250.0000
1719332160.000,2024-06-25 16:16:00,   13.8036,    1.2269,    0.2331,    1.7562,    0.0004,    0.0820,    2.4156, 5250.0000
1719332460.000,2024-06-25 16:21:00,   13.7937,    1.2267,    0.2328,    1.7562,    0.0004,    0.0819,    2.4157, 5250.0000
1719332760.000,2024-06-25 16:26:00,   13.7850,    1.2270,    0.0400,    1.7562,    0.0008,    0.0822,    2.4161, 5250.0000
1719333060.000,2024-06-25 16:31:00,   13.7724,    1.2268,    0.0397,    1.7563,    0.0011,    0.0820,    2.4157, 5250.0000
1719333360.000,2024-06-25 16:36:00,   13.7617,    1.2267,    0.0395,    1.7563,    0.0004,    0.0821,    2.4158, 5250.0000
1719333660.000,2024-06-25 16:41:00,   13.7491,    1.2268,    0.0396,    1.7563,    0.0008,    0.0823,    2.4157, 5250.0000
1719333960.000,2024-06-25 16:46:00,   13.7366,    1.2269,    0.0397,    1.7562,    0.0004,    0.0823,    2.4156, 5250.0000
1719334260.000,2024-06-25 16:51:00,   13.7248,    1.2268,    0.0396,    1.7563,    0.0004,    0.0823,    2.4158, 5250.0000
1719334560.000,2024-06-25 16:56:00,   13.7114,    1.2267,    0.0394,    1.7563,    0.0011,    0.0825,    2.4160, 5250.0000
1719334860.000,2024-06-25 17:01:00,   13.6985,    1.2269,    0.0396,    1.7563,    0.0004,    0.0823,    2.4160, 5250.0000
1719335160.000,2024-06-25 17:06:00,   13.6859,    1.2269,    0.0395,    1.7563,    0.0004,    0.0825,    2.4158, 5250.0000
1719335460.000,2024-06-25 17:11:00,   13.6729,    1.2268,    0.0395,    1.7563,    0.0004,    0.0825,    2.4156, 5250.0000
1719335760.000,2024-06-25 17:16:00,   13.6611,    1.2269,    0.0396,    1.7564,    0.0004,    0.0824,    2.4161, 5250.0000
1719336060.000,2024-06-25 17:21:00,   13.6497,    1.2268,    0.0396,    1.7564,    0.0004,    0.0824,    2.4162, 5250.0000
1719336360.000,2024-06-25 17:26:00,   13.6364,    1.2269,    0.0396,    1.7564,    0.0004,    0.0825,    2.4161, 5250.0000
1719336660.000,2024-06-25 17:31:00,   13.6211,    1.2269,    0.0396,    1.7564,    0.0008,    0.0826,    2.4162, 5250.0000
1719336960.000,2024-06-25 17:36:00,   13.6135,    1.2270,    0.0395,    1.7564,    0.0004,    0.0825,    2.4165, 5250.0000
1719337260.000,2024-06-25 17:41:00,   13.5998,    1.2267,    0.2282,    1.7564,    0.0008,    0.0828,    2.4161, 5250.0000
1719337560.000,2024-06-25 17:46:00,   13.6025,    1.2268,    0.2277,    1.7564,    0.0008,    0.0828,    2.4160, 5250.0000
1719337860.000,2024-06-25 17:51:00,   13.5842,    1.2269,    0.0397,    1.7564,    0.0008,    0.0827,    2.4163, 5250.0000
1719338160.000,2024-06-25 17:56:00,   13.5750,    1.2269,    0.0392,    1.7564,    0.0008,    0.0828,    2.4166, 5250.0000
1719338460.000,2024-06-25 18:01:00,   13.5606,    1.2270,    0.0392,    1.7565,    0.0008,    0.0829,    2.4161, 5250.0000
1719338760.000,2024-06-25 18:06:00,   13.5514,    1.2270,    0.0392,    1.7565,    0.0008,    0.0826,    2.4161, 5250.0000
1719339060.000,2024-06-25 18:11:00,   13.5362,    1.2269,    0.0392,    1.7564,    0.0004,    0.0826,    2.4164, 5250.0000
1719339360.000,2024-06-25 18:16:00,   13.5514,    1.2268,    0.0390,    1.7565,    0.0004,    0.0826,    2.4161, 5250.0000
1719339660.000,2024-06-25 18:21:00,   13.5312,    1.2271,    0.0391,    1.7564,    0.0004,    0.0824,    2.4163, 5250.0000
1719339960.000,2024-06-25 18:26:00,   13.5377,    1.2272,    0.0391,    1.7565,    0.0004,    0.0825,    2.4167, 5250.0000
1719340260.000,2024-06-25 18:31:00,   13.5274,    1.2269,    0.0391,    1.7565,    0.0004,    0.0823,    2.4161, 5250.0000
1719340560.000,2024-06-25 18:36:00,   13.5217,    1.2269,    0.0383,    1.7566,    0.0008,    0.0823,    2.4163, 5250.0000
1719340860.000,2024-06-25 18:41:00,   13.5213,    1.2269,    0.0214,    1.7565,    0.0008,    0.0822,    2.4164, 5250.0000
1719341160.000,2024-06-25 18:46:00,   13.5305,    1.2270,    0.0253,    1.7565,    0.0008,    0.0822,    2.4163, 5250.0000
1719341460.000,2024-06-25 18:51:00,   13.5190,    1.2270,    0.0387,    1.7564,    0.0004,    0.0823,    2.4167, 5250.0000